Regional Weather Roundup
Issued by NWS Grand Forks, ND

Home | Current Version | Previous Version | Graphics & Text | Print | Product List | Glossary On
Versions: 1 2 3 4 5 6 7 8 9 10 11 12 13 14 15 16 17 18 19 20 21 22 23 24 25 26 27 28 29 30 31 32 33 34 35 36 37 38 39 40 41 42 43 44 45 46 47 48 49 50
000
ASUS43 KFGF 201631
RWRFGF
PRAIRIE TO PINES  WEATHER ROUNDUP
NATIONAL WEATHER SERVICE EASTERN NORTH DAKOTA/GRAND FORKS ND
1000 AM CST SAT DEC 20 2014

 **SATELLITE DATA USED TO AUGMENT SKY COVER AT AUTOMATED STATIONS**
 *****  WEATHER ACROSS EASTERN NORTH DAKOTA  *****

CITY           SKY/WX    TMP DP  RH WIND       PRES   REMARKS
GRAND FORKS    FOG       27  27 100 SW5       30.00F VSB 1   WCI  21
GRAND FRKS AFB CLOUDY    25  25 100 SW9       30.00S WCI  16
GRAND FRKS NWS   N/A     27 N/A N/A S10         N/A  WCI  17
DEVILS LAKE    CLOUDY    21  16  79 S5        29.93R VSB 1/2 WCI  15
FARGO          CLOUDY    30  27  88 S12       30.02F FOG     WCI  20
WAHPETON ARPT  CLOUDY    30  28  93 S12       30.04S WCI  21
$$

 ***** WEATHER ACROSS CENTRAL AND WESTERN NORTH DAKOTA  *****

CITY           SKY/WX    TMP DP  RH WIND       PRES   REMARKS
BISMARCK       CLOUDY    16  14  92 NE3       29.92S
MINOT          FOG       21  19  92 SE7       29.88S VSB<1/4 WCI  12
JAMESTOWN      FOG       24  20  84 S12       29.96S VSB 1/4 WCI  13
MINOT AFB      FRZ DRZL  22  22 100 SE6       29.87F VSB<1/4 WCI  15
GARRISON         N/A     20  17  88 E6        29.87F WCI  12
WILLISTON      PTCLDY    22  20  92 S3        29.84R
DICKINSON      MOSUNNY   32  26  78 SW6       29.83R
HETTINGER      CLOUDY    34  27  75 W8        29.88R
$$

 *****  OTHER AIRPORT OBSERVATIONS IN OUR AREA  *****

CITY           SKY/WX    TMP DP  RH WIND       PRES   REMARKS
WALHALLA         N/A     25  25 100 CALM      29.98S FOG
GRAFTON AIRPOR NOT AVBL
VALLEY CITY AR FOG       25  25 100 MISG      29.98S VSB<1/4
CANDO          FOG       23  21  93 SE7       29.94S VSB 1/4 WCI  15
CAVALIER APRT  CLOUDY    28  27  93 CALM      29.98S FOG
GWINNER        CLOUDY    30  30 100 MISG      30.01F VSB 1/2
SHEYENNE NWR     N/A     27  26  95 S8        29.95S WCI  19
ROLLA          FOG       19  19 100 S9        29.91S VSB 1/4 WCI   9
 ***** THE ABOVE OBSERVATIONS ARE NON NWS ARE NOT QUALITY
       CONTROLLED AND MAY MIS-REPORT RAIN FOR SNOW...
$$

  *****  WEATHER ACROSS NORTHERN MINNESOTA  *****

CITY           SKY/WX    TMP DP  RH WIND       PRES   REMARKS
FLAG ISLAND    CLOUDY    27  27 100 S12       30.01S FOG     WCI  16
WARROAD        CLOUDY    28  27  93 S3        30.02R FOG
ROSEAU         CLOUDY    30  25  80 S6        30.02R HAZE    WCI  24
HALLOCK        CLOUDY    28  27  93 CALM      30.00S FOG
THF RVR FALLS  CLOUDY    28  27  93 S13       30.01S WCI  18
BAUDETTE       CLOUDY    29  27  92 SE3       30.02R FOG
WASKISH        CLOUDY    30  28  93 CALM      30.03S FOG
CROOKSTON      CLOUDY    28  28 100 S10       30.02F FOG     WCI  19
STEPHEN NDAWN    N/A     28  27  93 S7          N/A  WCI  21
GREENBUSH NDAW   N/A     28  27  93 S1          N/A
$$
  *****  WEATHER ACROSS CENTRAL AND WEST MINNESOTA  *****

CITY           SKY/WX    TMP DP  RH WIND       PRES   REMARKS
FOSSTON        CLOUDY    27  27 100 S9        30.02S FOG     WCI  17
BEMIDJI          N/A     29  28  96 S7        30.02S FOG     WCI  22
PARK RAPIDS    CLOUDY    29  27  92 S13       30.03S FOG     WCI  19
ELBOW LAKE     CLOUDY    29  28  95 S12       30.05R FOG     WCI  20
WADENA         CLOUDY    28  27  93 S10       30.04S FOG     WCI  19
DETROIT LAKES  CLOUDY    30  30 100 S12       30.03S FOG     WCI  21
MOORHEAD       CLOUDY    30  30 100 S8        30.04S FOG     WCI  23
FERGUS FALLS   CLOUDY    28  28 100 S10       30.07S FOG     WCI  19
MORRIS MN      MOSUNNY   30  28  93 S10       30.05S FOG     WCI  21
STAPLES        CLOUDY    28  27  93 S12       30.07R FOG     WCI  18
$$
  *****  WEATHER ELSEWHERE ACROSS MINNESOTA  *****

CITY           SKY/WX    TMP DP  RH WIND       PRES   REMARKS
DULUTH         LGT SNOW  27  24  89 S8        30.10F FOG     WCI  19
INTRNTL FALLS  CLOUDY    28  26  92 VRB5      30.04S FOG     WCI  23
ELY            PTSUNNY   28  25  86 S7        30.09S WCI  21
CLOQUET        CLOUDY    28  25  86 SE5       30.11S FOG     WCI  23
WHEATON        CLOUDY    28  27  93 S12       30.07S FOG     WCI  18
BRAINERD       CLOUDY    30  28  92 S13       30.07S FOG     WCI  20
HIBBING        CLOUDY    29  25  85 S7        30.08S FOG     WCI  22
ALEXANDRIA     CLOUDY    30  27  88 S12       30.05F FOG     WCI  20
SAINT CLOUD    CLOUDY    32  28  85 S9        30.11R FOG     WCI  24
MINNEAPOLIS    CLOUDY    30  27  88 S9        30.15S FOG     WCI  22
$$

  *****  WEATHER ACROSS SOUTH DAKOTA  *****

CITY           SKY/WX    TMP DP  RH WIND       PRES   REMARKS
SIOUX FALLS    CLOUDY    32  29  88 S9        30.07S WCI  24
BROOKINGS      NOT AVBL
WATERTOWN      CLOUDY    28  27  96 S13G18    30.01S FOG     WCI  17
HURON          FOG       26  26 100 S10       30.03S VSB 1/4 WCI  16
SISSETON         N/A     29  27  92 S13       30.03R WCI  19
ABERDEEN       FOG       26  24  92 S10       30.01F VSB 1/4 WCI  16
MITCHELL       FOG       27  26  96 S12       30.06R VSB 1/2 WCI  17
PIERRE         CLOUDY    23  19  85 S6        29.96R FOG     WCI  16
MOBRIDGE       CLOUDY    24  21  88 S6        29.90R WCI  17
RAPID CITY     CLOUDY    34  27  75 CALM      29.91S
$$

  *****  SOME WEATHER IN NEARBY STATES *****

CITY           SKY/WX    TMP DP  RH WIND       PRES   REMARKS
GLASGOW MT     PTCLDY    30  25  81 W7        29.82S WCI  23
GREAT FALLS MT MOCLDY    36  21  54 SW15      29.85S
CHEYENNE WY    CLOUDY    34  19  54 CALM      30.02R
SCOTTSBLUFF NE CLOUDY    22  18  85 CALM      29.99R
OMAHA NE       CLOUDY    33  32  96 S7        30.14R FOG
DES MOINES IA  CLOUDY    33  30  88 SE6       30.18S FOG
DAVENPORT IA   CLOUDY    31  24  75 SE8       30.26R WCI  23
CHICAGO IL     CLOUDY    31  23  72 S6        30.28R
EAU CLAIRE WI  CLOUDY    29  23  78 S7        30.19S WCI  22
LA CROSSE WI   CLOUDY    31  25  78 SE7       30.22S WCI  24
$$

  *****  SOME NATIONAL WEATHER *****

CITY           SKY/WX    TMP DP  RH WIND       PRES   REMARKS
LA GUARDIA NY  CLOUDY    31  20  63 N9        30.30F WCI  23
RALEIGH NC     CLOUDY    34  29  82 NE3       30.30F
ATLANTA GA     PTSUNNY   49  44  83 E6        30.20S
NEW ORLEANS LA CLOUDY    52  48  86 NE14      30.16R
OKLAHOMA CITY  CLOUDY    43  35  73 SE8       30.22R
ALBUQUERQUE NM CLOUDY    30  25  81 CALM      30.18S
SALT LAKE CITY CLOUDY    39  34  82 CALM      30.11R
LOS ANGELES CA PTSUNNY   53  47  79 CALM      30.17S
BOISE ID       LGT RAIN  39  37  93 SE8       30.01S
SEATTLE WA     LGT RAIN  45  41  86 E7        29.64F
$$

*** WEATHER ACROSS MANITOBA...SASKATCHEWAN AND ONTARIO ***
                ***ONTARIO***

CITY           SKY/WX    TMP DP  RH WIND       PRES   REMARKS
GERALDTON      CLOUDY    16  14  93 NW2       30.20R
THUNDER BAY    FLURRIES  27  25  93 E2        30.19S
SIOUX LOOKOUT  FLURRIES  25  21  86 S5        30.05  WCI  19
TORONTO        MOSUNNY   27  21  80 N6        30.29F WCI  20
BIG TROUT LK   CLOUDY    19  19 100 S9        30.10F WCI   9
PICKLE LAKE    FLURRIES  19  18  93 SE3       30.09S
DRYDEN         CLOUDY    25  23  93 S7        30.04S WCI  17
KENORA         FRZ DRZL  25  23  93 SE6       30.01S VSB 3/8 WCI  18
$$
                *** MANITOBA***

CITY           SKY/WX    TMP DP  RH WIND       PRES   REMARKS
BRANDON        CLOUDY    23  23 100 SE3       29.93S FOG
DAUPHIN        CLOUDY    23  19  86 SE5       29.94S WCI  17
ISLAND LAKE    FLURRIES  19  19 100 SE5       30.03S WCI  13
PILOT MOUND      N/A     23  21  93 SE1         N/A
THE PAS        FRZ DRZL  19  18  93 SE14      29.91F FOG     WCI   6
THOMPSON       FLURRIES  14  12  92 S7        29.97F WCI   4
WINNIPEG       FRZ DRZL  27  25  93 S5        30.00F FOG     WCI  21
LYNN LAKE      FLURRIES  12  10  92 S7        29.87R WCI   2
CHURCHILL      FLURRIES  12  10  92 S8        30.02S WCI   1
GILLAM         LGT SNOW  14  12  92 S6        30.03F WCI   5
$$
                ***SASKATCHEWAN***

CITY           SKY/WX    TMP DP  RH WIND       PRES   REMARKS
ESTEVAN        CLOUDY    19  18  93 E9        29.82  FOG     WCI   9
KINDERSLEY     MOCLDY    16  14  93 W5        29.70S WCI   9
LLOYDMINSTER   MOCLDY    16  14  93 W3        29.69
PRINCE ALBERT  LGT SNOW  18  18 100 SE7       29.78S FOG     WCI   8
REGINA         LGTSLEET  21  19  93 SE15      29.76S FOG     WCI   8
YORKTON        FOG       21  19  93 SE12G17   29.83S VSB 1   WCI   9
N. BATTLEFORD  LGT SNOW  18  18 100 SE6       29.74S VSB 1   WCI   9
LA RONGE       CLOUDY    14  12  92 SE8       29.82  WCI   3
SASKATOON      LGT SNOW  19  18  93 E7        29.73  FOG     WCI  10
SWIFT CURRENT  CLEAR     28  27  93 W13G18    29.70R WCI  18
$$
NOTE: THESE ARE AUTOMATED STATIONS WITH LIMITED QUALITY CONTROL
      "FAIR" INDICATES FEW OR NO CLOUDS BELOW 12,000 FEET WITH NO
      SIGNIFICANT WEATHER AND/OR OBSTRUCTIONS TO VISIBILITY.
      SKY/WX - SKY CONDITION AND SIGNIFICANT WEATHER.
      TMP - AIR TEMPERATURE.    DP   - DEWPOINT TEMPERATURE.
      RH  - RELATIVE HUMIDITY.  PRES - PRESSURE.
      HX  - HEAT INDEX.         WCI  - WIND CHILL INDEX.
$


USA.gov is the U.S. government's official web portal to all federal, state and local government web resources and services.